Content
SEND FEEDBACK

Daily
Averages
Monthly
Summary
United States of America

ENTERPRISE, ALABAMA


Home > North America > United States > Alabama
Elevation: 298 feet     Latitude: 31 17N     Longitude: 085 43W

WEATHER
 
SELECT A DAY
Number of Records: 68,207;   Date Range: 2/10/98 - 12/26/14
 
SHARE

PRINT THIS DATA

[ ← Previous Day ]
WEATHER ALMANAC - MARCH 21, 2014
[ Next Day → ]
[ °C ]   °F
Weather ElementAverageHighLow
Temperature60 °F75.9 °F (3:53 pm)39 °F (5:53 am)
Dewpoint40 °F52 °F (10:53 pm)32 °F (10:53 am)
Humidity55.2 %93 % (4:53 am)23 % (3:53 pm)
Barometer30.07 in30.14 in (8:53 am)30.00 in (5:53 pm)
Wind Speed2.6 mph10.4 mph (3:53 pm)
Weather ElementAverage
Visibility10 mi
Wind DirectionENE (70.4 °)

Weather ElementTotal
Precipitation---
Heating Degree Days7.6 (Base 65)
Growing Degree Days7.5 (Base 50)
Averaged from 23 records on March 21, 2014
WEATHER CONDITIONS BREAKOUT
WIND DIRECTION BREAKOUT
WEATHER BY HOUR - MARCH 21, 2014
[ °C ]   °F
Local TimeTemperatureDewpointHumidityBarometerVisibilityWind DirectionWind SpeedGust SpeedPrecipitationEventsConditions
1:53 AM46.0 °F42.1 °F86 %30.07 in10.0 miCalmClear
2:53 AM43.0 °F39.0 °F86 %30.07 in10.0 miCalmClear
3:53 AM42.1 °F39.0 °F89 %30.07 in10.0 miCalmClear
4:53 AM39.9 °F37.9 °F93 %30.07 in10.0 miCalmClear
5:53 AM39.0 °F37.0 °F93 %30.09 in10.0 miCalmClear
6:53 AM39.0 °F37.0 °F93 %30.11 inCalmClear
7:53 AM44.1 °F41.0 °F89 %30.12 inCalmClear
8:53 AM57.0 °F41.0 °F55 %30.14 in10.0 miENE (60°)3.5 mphClear
9:53 AM64.9 °F33.1 °F31 %30.14 in10.0 miEast (80°)8.1 mphClear
10:53 AM68.0 °F32.0 °F26 %30.14 in10.0 miEast (80°)8.1 mphClear
11:53 AM70.0 °F33.1 °F26 %30.12 in10.0 miCalmClear
12:53 PM72.0 °F33.1 °F24 %30.09 in10.0 miSouth (180°)4.6 mphClear
1:53 PM73.9 °F36.0 °F25 %30.07 in10.0 miSSW (210°)4.6 mphClear
2:53 PM75.0 °F36.0 °F24 %30.04 in10.0 miWSW (240°)5.8 mphClear
3:53 PM75.9 °F36.0 °F23 %30.02 in10.0 miSSW (200°)10.4 mphClear
4:53 PM73.9 °F39.0 °F28 %30.01 in10.0 miSSW (200°)6.9 mphClear
5:53 PM73.0 °F39.0 °F29 %30.00 in10.0 miSouth (180°)3.5 mphClear
6:53 PM69.1 °F42.1 °F38 %30.01 in10.0 miCalmClear
7:53 PM64.9 °F43.0 °F45 %30.03 in10.0 miCalmClear
8:53 PM62.1 °F48.0 °F60 %30.04 in10.0 miCalmClear
9:53 PM63.0 °F51.1 °F65 %30.04 in10.0 miSouth (190°)4.6 mphClear
10:53 PM63.0 °F52.0 °F67 %30.04 in10.0 miCalmClear
11:53 PM60.1 °F52.0 °F75 %30.03 in10.0 miCalmClear
Hourly data recorded from KLOR, located miles away from Enterprise, Alabama







STORIES FROM OUR PARTNERS